Home   Weather   Knarvik   Past weeks

Flag for Norway Past Weather in Knarvik, Norway — Yesterday and Last 2 Weeks

Now
54 °F

Cool.


Feels Like: 51 °F
Forecast: 45 / 51 °F
Wind: 10 mph from Southeast

Location: Bergen / Florida

Current Time: Sep 29, 2016 at 1:54:20 PM

Latest Report: Sep 29, 2016 at 1:00 PM


Visibility: N/A

Pressure: 29.03 "Hg

Humidity: 74%

Dew Point: 46 °F

Location of KnarvikLocation

Past Weather in Knarvik — Graph

°F

Knarvik Temperature Yesterday

Maximum temperature yesterday: 58 °F (at 1:00 PM)
Minimum temperature yesterday: 51 °F (at 10:00 PM)
Average temperature yesterday: 54 °F

High & Low Weather Summary for the Past Weeks

 TemperatureHumidityPressure
High81 °F (Sep 16, 2:00 PM)92% (Sep 15, 9:00 AM)30.23 "Hg (Sep 15, 9:00 AM)
Low51 °F (Sep 27, 3:00 AM)36% (Sep 16, 2:00 PM)29.09 "Hg (Sep 29, 11:00 AM)
Average60 °F74%30.00 "Hg
* Reported Sep 14 11:00 AM — Sep 29 11:00 AM, Knarvik, Weather by CustomWeather, © 2016

Note: Actual official high and low records may vary slightly from our data, if they occured in-between our weather recording intervals... More about our weather records

Advertising

Knarvik Weather History for the Previous 24 Hours

Scroll right to see more
 ConditionsComfort  
Time TempWeatherWind HumidityBarometerVisibility
11:00 AM
Thu, Sep 29
56 °FSprinkles. Partly sunny.5 mph70%29.09 "Hg17 mi
9:00 AM57 °FCool.2 mph68%29.18 "HgN/A
8:00 AM58 °FCool.3 mph77%29.18 "HgN/A
7:00 AM58 °FCool.2 mph80%29.21 "HgN/A
6:00 AM58 °FCool.6 mph83%29.21 "HgN/A
5:00 AM58 °FCool.2 mph87%29.23 "HgN/A
4:00 AM56 °FCool.9 mph87%29.29 "HgN/A
3:00 AM53 °FCool.8 mph84%29.32 "HgN/A
2:00 AM52 °FCool.8 mph83%29.38 "HgN/A
1:00 AM51 °FCool.7 mph84%29.47 "HgN/A
12:00 AM53 °FCool.7 mph76%29.56 "HgN/A
11:00 PM
Wed, Sep 28
52 °FPassing clouds.5 mph77%29.62 "Hg19 mi
10:00 PM51 °FCool.3 mph79%29.66 "HgN/A
9:00 PM51 °FCool.3 mph79%29.70 "HgN/A
8:00 PM51 °FOvercast.1 mph78%29.73 "Hg25 mi
7:00 PM53 °FCool.1 mph72%29.73 "HgN/A
6:00 PM54 °FCool.3 mph70%29.75 "HgN/A
3:00 PM55 °FCool.6 mph71%29.72 "HgN/A
2:00 PM56 °FOvercast.6 mph77%29.70 "Hg19 mi
1:00 PM58 °FCool.5 mph73%29.68 "HgN/A
Weather by CustomWeather, © 2016

See weather overviewHow to use our weather pages